Precipitable_Water
0.58 0.58 0.57 0.54 0.51 0.50 0.50 0.50 0.51 0.52 0.53 0.52 0.52 0.52 0.53 0.53 0.54 0.53 0.54 0.54 0.55 0.55 0.55 0.54 0.55 0.55 0.56 0.57 0.56 0.57 0.58 0.59 0.60 0.60 0.60 0.60 0.58 0.56 0.56 0.56 0.53 0.49 0.47 0.46 0.44 0.40 0.36 0.35 0.34 0.33 0.34 0.34 0.34 0.35 0.36 0.38 0.39 0.41 0.41 0.41 0.41 0.40 0.37
0.58 0.58 0.57 0.55 0.51 0.50 0.51 0.51 0.52 0.52 0.52 0.51 0.51 0.52 0.53 0.53 0.53 0.52 0.52 0.53 0.53 0.53 0.54 0.54 0.54 0.55 0.55 0.56 0.56 0.56 0.57 0.58 0.59 0.59 0.58 0.58 0.57 0.56 0.56 0.57 0.53 0.49 0.47 0.42 0.41 0.38 0.36 0.34 0.33 0.33 0.36 0.36 0.36 0.37 0.39 0.39 0.39 0.39 0.38 0.37 0.36 0.34 0.32
0.58 0.58 0.57 0.55 0.52 0.51 0.51 0.51 0.52 0.52 0.52 0.52 0.52 0.52 0.52 0.53 0.53 0.52 0.52 0.52 0.52 0.52 0.53 0.53 0.53 0.53 0.54 0.55 0.54 0.55 0.55 0.57 0.57 0.58 0.57 0.57 0.57 0.56 0.56 0.56 0.54 0.49 0.43 0.40 0.38 0.37 0.34 0.32 0.33 0.34 0.37 0.40 0.41 0.41 0.42 0.43 0.42 0.41 0.38 0.36 0.33 0.32 0.32
0.58 0.58 0.57 0.55 0.52 0.50 0.50 0.51 0.52 0.52 0.53 0.53 0.53 0.52 0.52 0.52 0.52 0.52 0.52 0.52 0.51 0.52 0.52 0.52 0.52 0.52 0.53 0.53 0.52 0.52 0.52 0.53 0.55 0.56 0.56 0.56 0.56 0.56 0.54 0.53 0.51 0.49 0.44 0.41 0.37 0.36 0.33 0.33 0.33 0.35 0.39 0.43 0.45 0.45 0.44 0.43 0.42 0.40 0.38 0.34 0.31 0.30 0.30
0.58 0.57 0.56 0.53 0.51 0.50 0.51 0.52 0.53 0.53 0.53 0.53 0.53 0.53 0.52 0.52 0.52 0.52 0.52 0.52 0.52 0.52 0.51 0.51 0.50 0.50 0.50 0.51 0.50 0.50 0.50 0.51 0.52 0.53 0.54 0.54 0.53 0.53 0.52 0.50 0.47 0.45 0.44 0.39 0.36 0.34 0.34 0.34 0.36 0.38 0.40 0.43 0.45 0.44 0.43 0.42 0.41 0.39 0.36 0.32 0.30 0.28 0.28
0.56 0.55 0.54 0.53 0.51 0.51 0.52 0.53 0.53 0.53 0.53 0.53 0.53 0.53 0.53 0.53 0.52 0.52 0.52 0.52 0.52 0.52 0.52 0.50 0.50 0.49 0.49 0.49 0.48 0.48 0.49 0.50 0.50 0.50 0.50 0.50 0.50 0.49 0.48 0.47 0.45 0.43 0.41 0.40 0.38 0.35 0.34 0.36 0.37 0.39 0.40 0.42 0.44 0.44 0.42 0.40 0.39 0.36 0.33 0.30 0.27 0.26 0.26
0.54 0.55 0.54 0.53 0.52 0.52 0.53 0.53 0.54 0.54 0.54 0.54 0.53 0.53 0.53 0.52 0.52 0.52 0.52 0.53 0.52 0.52 0.51 0.51 0.50 0.49 0.48 0.48 0.48 0.47 0.47 0.48 0.48 0.48 0.48 0.48 0.47 0.46 0.45 0.43 0.43 0.42 0.41 0.39 0.36 0.35 0.36 0.38 0.40 0.41 0.40 0.41 0.43 0.42 0.41 0.38 0.36 0.33 0.31 0.28 0.27 0.25 0.25
0.54 0.55 0.54 0.53 0.53 0.53 0.54 0.54 0.54 0.54 0.54 0.54 0.53 0.53 0.53 0.53 0.52 0.52 0.52 0.52 0.52 0.52 0.51 0.51 0.50 0.49 0.48 0.48 0.47 0.47 0.47 0.46 0.46 0.47 0.46 0.46 0.45 0.45 0.44 0.43 0.43 0.42 0.40 0.39 0.38 0.38 0.39 0.41 0.41 0.41 0.41 0.41 0.41 0.40 0.38 0.37 0.34 0.31 0.29 0.27 0.26 0.25 0.24
0.55 0.55 0.54 0.54 0.53 0.53 0.54 0.54 0.54 0.55 0.54 0.54 0.54 0.54 0.53 0.53 0.53 0.52 0.51 0.51 0.51 0.51 0.51 0.50 0.49 0.48 0.47 0.47 0.46 0.46 0.46 0.46 0.46 0.44 0.42 0.42 0.43 0.42 0.42 0.41 0.40 0.40 0.40 0.40 0.41 0.41 0.43 0.42 0.41 0.41 0.40 0.39 0.38 0.38 0.37 0.35 0.33 0.30 0.28 0.26 0.24 0.23 0.24
0.56 0.55 0.54 0.53 0.53 0.53 0.54 0.55 0.55 0.56 0.55 0.54 0.54 0.53 0.53 0.53 0.52 0.52 0.51 0.51 0.50 0.50 0.50 0.49 0.48 0.47 0.46 0.45 0.44 0.43 0.43 0.43 0.42 0.42 0.41 0.39 0.39 0.39 0.39 0.40 0.40 0.41 0.42 0.42 0.41 0.41 0.41 0.40 0.40 0.39 0.39 0.38 0.37 0.37 0.36 0.33 0.31 0.28 0.27 0.25 0.24 0.24 0.24
0.54 0.54 0.53 0.53 0.53 0.53 0.54 0.55 0.56 0.55 0.55 0.54 0.54 0.53 0.53 0.52 0.52 0.51 0.51 0.50 0.49 0.48 0.48 0.48 0.48 0.46 0.44 0.43 0.41 0.41 0.40 0.40 0.39 0.39 0.39 0.40 0.42 0.43 0.44 0.43 0.43 0.42 0.42 0.41 0.40 0.40 0.40 0.39 0.38 0.38 0.38 0.37 0.36 0.35 0.33 0.31 0.29 0.28 0.27 0.25 0.24 0.23 0.24
0.54 0.54 0.53 0.53 0.53 0.53 0.53 0.54 0.55 0.55 0.55 0.55 0.54 0.54 0.53 0.52 0.51 0.50 0.50 0.49 0.48 0.47 0.46 0.46 0.46 0.45 0.44 0.42 0.40 0.40 0.39 0.39 0.39 0.40 0.40 0.41 0.42 0.43 0.44 0.45 0.44 0.43 0.42 0.42 0.40 0.39 0.39 0.38 0.37 0.37 0.36 0.35 0.34 0.33 0.32 0.31 0.29 0.28 0.27 0.25 0.25 0.24 0.23
0.53 0.53 0.53 0.53 0.52 0.53 0.54 0.54 0.55 0.55 0.55 0.55 0.55 0.55 0.53 0.51 0.51 0.49 0.48 0.48 0.47 0.46 0.45 0.45 0.44 0.43 0.42 0.42 0.41 0.40 0.39 0.39 0.39 0.39 0.40 0.41 0.41 0.42 0.42 0.42 0.43 0.43 0.43 0.41 0.39 0.38 0.37 0.37 0.36 0.35 0.34 0.33 0.32 0.31 0.29 0.28 0.27 0.27 0.26 0.25 0.24 0.24 0.24
0.53 0.53 0.53 0.53 0.53 0.53 0.53 0.54 0.55 0.55 0.55 0.55 0.55 0.54 0.53 0.51 0.50 0.49 0.48 0.47 0.46 0.45 0.44 0.43 0.42 0.41 0.40 0.40 0.40 0.39 0.39 0.39 0.39 0.38 0.39 0.39 0.39 0.39 0.39 0.39 0.40 0.39 0.39 0.38 0.37 0.36 0.35 0.36 0.35 0.32 0.31 0.30 0.29 0.28 0.27 0.26 0.26 0.26 0.25 0.24 0.24 0.25 0.25
0.52 0.53 0.53 0.53 0.53 0.53 0.53 0.55 0.56 0.55 0.56 0.55 0.55 0.54 0.53 0.52 0.50 0.48 0.47 0.46 0.46 0.45 0.44 0.42 0.41 0.40 0.39 0.39 0.39 0.39 0.39 0.38 0.38 0.38 0.38 0.38 0.38 0.38 0.38 0.37 0.37 0.36 0.36 0.36 0.36 0.35 0.34 0.33 0.32 0.30 0.29 0.28 0.28 0.28 0.27 0.27 0.26 0.26 0.26 0.26 0.27 0.26 0.26
0.54 0.54 0.53 0.53 0.53 0.53 0.53 0.55 0.55 0.55 0.55 0.56 0.55 0.53 0.51 0.49 0.48 0.47 0.46 0.45 0.44 0.44 0.43 0.41 0.40 0.39 0.39 0.39 0.38 0.38 0.38 0.39 0.39 0.38 0.37 0.37 0.37 0.37 0.36 0.36 0.36 0.36 0.35 0.35 0.34 0.33 0.32 0.31 0.30 0.29 0.29 0.28 0.28 0.28 0.28 0.28 0.28 0.28 0.27 0.26 0.26 0.25 0.26
0.53 0.54 0.54 0.53 0.54 0.53 0.53 0.54 0.55 0.55 0.55 0.55 0.54 0.52 0.49 0.48 0.47 0.46 0.45 0.44 0.43 0.43 0.41 0.40 0.39 0.39 0.38 0.38 0.38 0.39 0.39 0.39 0.38 0.37 0.36 0.36 0.35 0.35 0.35 0.35 0.35 0.35 0.34 0.33 0.32 0.31 0.31 0.30 0.30 0.29 0.29 0.29 0.29 0.28 0.29 0.28 0.27 0.26 0.27 0.26 0.25 0.25 0.24
0.53 0.53 0.53 0.53 0.53 0.54 0.54 0.54 0.55 0.55 0.55 0.54 0.53 0.51 0.48 0.47 0.45 0.45 0.44 0.43 0.43 0.42 0.40 0.40 0.39 0.38 0.38 0.38 0.39 0.39 0.39 0.38 0.37 0.36 0.35 0.35 0.34 0.33 0.32 0.32 0.33 0.33 0.33 0.32 0.32 0.32 0.31 0.31 0.30 0.30 0.30 0.29 0.29 0.29 0.28 0.27 0.25 0.26 0.26 0.24 0.24 0.22 0.22
0.52 0.52 0.53 0.54 0.54 0.54 0.54 0.54 0.54 0.54 0.53 0.52 0.51 0.50 0.48 0.46 0.45 0.44 0.43 0.42 0.41 0.40 0.39 0.39 0.39 0.38 0.39 0.39 0.39 0.39 0.39 0.38 0.37 0.35 0.34 0.33 0.32 0.31 0.30 0.31 0.31 0.30 0.30 0.30 0.30 0.30 0.30 0.30 0.30 0.30 0.30 0.30 0.29 0.28 0.28 0.27 0.26 0.25 0.23 0.22 0.22 0.21 0.20
0.51 0.51 0.51 0.53 0.53 0.53 0.54 0.53 0.53 0.52 0.51 0.50 0.50 0.49 0.47 0.46 0.44 0.43 0.42 0.41 0.39 0.38 0.38 0.38 0.38 0.39 0.39 0.39 0.39 0.39 0.38 0.37 0.35 0.34 0.33 0.32 0.31 0.30 0.30 0.30 0.30 0.29 0.29 0.28 0.28 0.28 0.28 0.28 0.28 0.28 0.28 0.28 0.27 0.27 0.26 0.25 0.24 0.23 0.22 0.20 0.20 0.19 0.18
0.50 0.50 0.50 0.52 0.53 0.53 0.53 0.52 0.51 0.51 0.50 0.49 0.49 0.48 0.47 0.45 0.43 0.43 0.42 0.40 0.39 0.38 0.37 0.37 0.38 0.38 0.38 0.38 0.38 0.38 0.38 0.36 0.35 0.33 0.32 0.32 0.31 0.31 0.31 0.30 0.29 0.28 0.28 0.28 0.27 0.27 0.27 0.26 0.26 0.25 0.25 0.24 0.24 0.23 0.22 0.22 0.21 0.20 0.19 0.18 0.17 0.16 0.16
0.49 0.49 0.50 0.51 0.51 0.51 0.51 0.51 0.50 0.49 0.49 0.48 0.48 0.48 0.47 0.44 0.43 0.42 0.41 0.39 0.38 0.37 0.37 0.37 0.37 0.38 0.38 0.38 0.38 0.37 0.36 0.35 0.34 0.32 0.32 0.31 0.31 0.31 0.30 0.29 0.28 0.28 0.27 0.26 0.26 0.25 0.24 0.24 0.23 0.23 0.23 0.22 0.22 0.21 0.21 0.20 0.20 0.19 0.19 0.18 0.18 0.17 0.17
0.48 0.48 0.48 0.48 0.49 0.49 0.49 0.49 0.49 0.49 0.48 0.48 0.48 0.47 0.46 0.44 0.42 0.41 0.40 0.38 0.37 0.37 0.37 0.37 0.37 0.37 0.37 0.37 0.37 0.36 0.36 0.35 0.34 0.32 0.31 0.31 0.31 0.30 0.29 0.28 0.27 0.27 0.26 0.25 0.25 0.24 0.23 0.23 0.23 0.22 0.22 0.22 0.21 0.21 0.21 0.20 0.20 0.20 0.19 0.19 0.19 0.19 0.19
0.48 0.47 0.46 0.45 0.46 0.47 0.47 0.47 0.47 0.47 0.47 0.47 0.47 0.46 0.45 0.44 0.42 0.41 0.40 0.39 0.37 0.37 0.37 0.36 0.36 0.36 0.36 0.36 0.35 0.35 0.35 0.34 0.33 0.32 0.31 0.30 0.30 0.29 0.28 0.27 0.26 0.26 0.25 0.25 0.24 0.23 0.23 0.23 0.22 0.22 0.22 0.22 0.22 0.22 0.21 0.21 0.21 0.20 0.20 0.20 0.20 0.20 0.19
0.46 0.45 0.45 0.44 0.44 0.45 0.45 0.46 0.46 0.45 0.46 0.45 0.45 0.45 0.44 0.43 0.42 0.41 0.39 0.38 0.38 0.37 0.37 0.36 0.36 0.35 0.35 0.34 0.34 0.34 0.34 0.33 0.32 0.31 0.30 0.30 0.29 0.28 0.27 0.27 0.26 0.25 0.25 0.24 0.24 0.23 0.23 0.23 0.23 0.23 0.23 0.23 0.22 0.22 0.22 0.21 0.21 0.21 0.21 0.21 0.20 0.20 0.19
0.43 0.43 0.43 0.42 0.42 0.43 0.43 0.44 0.44 0.44 0.44 0.44 0.44 0.44 0.43 0.42 0.41 0.40 0.39 0.38 0.37 0.37 0.36 0.36 0.36 0.35 0.35 0.34 0.33 0.33 0.32 0.31 0.31 0.30 0.29 0.28 0.28 0.27 0.27 0.26 0.26 0.25 0.24 0.24 0.23 0.23 0.23 0.23 0.23 0.23 0.23 0.23 0.22 0.22 0.21 0.21 0.21 0.21 0.20 0.20 0.20 0.19 0.19
0.41 0.41 0.40 0.40 0.40 0.41 0.41 0.41 0.42 0.42 0.42 0.42 0.42 0.41 0.41 0.41 0.40 0.39 0.38 0.37 0.37 0.36 0.36 0.35 0.35 0.35 0.34 0.34 0.33 0.33 0.32 0.30 0.29 0.28 0.28 0.27 0.27 0.26 0.26 0.25 0.25 0.24 0.24 0.23 0.23 0.23 0.23 0.23 0.23 0.23 0.23 0.22 0.22 0.21 0.22 0.22 0.21 0.20 0.20 0.20 0.19 0.19 0.18
0.40 0.39 0.39 0.38 0.38 0.38 0.39 0.39 0.39 0.40 0.40 0.40 0.40 0.40 0.40 0.39 0.38 0.38 0.37 0.36 0.35 0.35 0.35 0.34 0.33 0.33 0.33 0.32 0.32 0.31 0.30 0.29 0.28 0.28 0.27 0.27 0.26 0.26 0.25 0.25 0.25 0.24 0.24 0.24 0.23 0.23 0.23 0.23 0.23 0.22 0.22 0.22 0.22 0.21 0.21 0.21 0.20 0.20 0.19 0.19 0.19 0.18 0.18
0.38 0.38 0.38 0.38 0.37 0.37 0.36 0.37 0.37 0.38 0.39 0.39 0.39 0.39 0.38 0.37 0.37 0.37 0.36 0.35 0.34 0.33 0.33 0.32 0.31 0.31 0.30 0.30 0.29 0.29 0.28 0.27 0.27 0.26 0.26 0.26 0.25 0.25 0.24 0.24 0.24 0.23 0.23 0.23 0.23 0.22 0.22 0.22 0.22 0.22 0.22 0.21 0.21 0.21 0.21 0.21 0.20 0.20 0.19 0.19 0.18 0.18 0.17
0.38 0.38 0.38 0.37 0.37 0.37 0.36 0.36 0.37 0.37 0.37 0.37 0.37 0.37 0.37 0.37 0.36 0.36 0.35 0.34 0.33 0.33 0.31 0.30 0.29 0.29 0.29 0.28 0.28 0.27 0.26 0.26 0.26 0.25 0.25 0.24 0.24 0.24 0.24 0.23 0.23 0.23 0.23 0.23 0.22 0.22 0.22 0.22 0.22 0.21 0.21 0.21 0.20 0.20 0.20 0.20 0.19 0.19 0.19 0.18 0.17 0.17 0.17
0.37 0.37 0.37 0.36 0.35 0.36 0.36 0.36 0.36 0.36 0.36 0.35 0.35 0.35 0.35 0.34 0.34 0.34 0.33 0.33 0.31 0.30 0.29 0.28 0.28 0.28 0.28 0.27 0.27 0.26 0.25 0.25 0.25 0.24 0.24 0.23 0.23 0.23 0.23 0.23 0.22 0.22 0.22 0.22 0.22 0.22 0.21 0.21 0.21 0.20 0.20 0.20 0.20 0.19 0.19 0.19 0.19 0.18 0.18 0.17 0.17 0.16 0.16
0.34 0.34 0.34 0.34 0.34 0.33 0.33 0.34 0.34 0.34 0.34 0.34 0.33 0.33 0.33 0.32 0.32 0.32 0.31 0.31 0.30 0.28 0.27 0.27 0.27 0.26 0.26 0.26 0.25 0.25 0.25 0.24 0.24 0.23 0.23 0.23 0.22 0.22 0.22 0.22 0.22 0.22 0.22 0.21 0.21 0.21 0.20 0.20 0.20 0.20 0.20 0.19 0.19 0.19 0.18 0.18 0.18 0.17 0.17 0.16 0.16 0.16 0.15
0.31 0.31 0.32 0.32 0.32 0.32 0.32 0.32 0.32 0.32 0.32 0.32 0.32 0.31 0.31 0.31 0.31 0.30 0.29 0.29 0.27 0.26 0.26 0.26 0.25 0.25 0.25 0.25 0.24 0.24 0.24 0.24 0.23 0.23 0.23 0.22 0.22 0.22 0.22 0.22 0.22 0.22 0.21 0.21 0.21 0.20 0.20 0.20 0.19 0.19 0.19 0.19 0.18 0.18 0.17 0.17 0.17 0.16 0.16 0.15 0.15 0.15 0.15
0.29 0.29 0.29 0.29 0.29 0.30 0.30 0.30 0.30 0.30 0.30 0.30 0.30 0.30 0.30 0.29 0.29 0.29 0.28 0.27 0.26 0.25 0.25 0.25 0.24 0.24 0.24 0.24 0.23 0.23 0.23 0.23 0.23 0.23 0.22 0.22 0.22 0.22 0.22 0.22 0.22 0.21 0.21 0.20 0.20 0.20 0.19 0.19 0.19 0.19 0.18 0.18 0.17 0.17 0.17 0.16 0.16 0.16 0.15 0.15 0.14 0.14 0.14
0.25 0.26 0.26 0.26 0.27 0.27 0.27 0.27 0.28 0.28 0.28 0.28 0.28 0.27 0.27 0.27 0.26 0.25 0.25 0.25 0.25 0.25 0.24 0.23 0.23 0.23 0.23 0.23 0.23 0.23 0.23 0.22 0.22 0.22 0.22 0.22 0.21 0.21 0.21 0.21 0.21 0.20 0.20 0.20 0.19 0.19 0.19 0.19 0.18 0.18 0.17 0.17 0.17 0.16 0.16 0.15 0.15 0.15 0.15 0.14 0.14 0.14 0.14
0.22 0.23 0.24 0.24 0.24 0.25 0.25 0.25 0.25 0.26 0.26 0.26 0.26 0.25 0.25 0.24 0.23 0.23 0.23 0.23 0.23 0.23 0.23 0.23 0.23 0.23 0.22 0.22 0.22 0.22 0.22 0.22 0.21 0.21 0.21 0.21 0.21 0.20 0.20 0.20 0.20 0.19 0.19 0.19 0.19 0.18 0.18 0.18 0.17 0.17 0.17 0.16 0.16 0.16 0.15 0.15 0.15 0.14 0.14 0.14 0.14 0.14 0.13
Wind_Speed
34 34 34 33 33 34 34 34 34 34 34 34 34 34 34 33 33 33 34 34 34 34 35 36 36 36 36 36 36 37 37 37 38 39 39 39 38 38 37 37 37 36 34 34 34 35 36 36 36 35 35 35 35 35 35 35 35 34 34 33 33 32 31
35 35 34 34 34 34 35 35 35 35 34 34 34 34 34 34 34 34 34 34 35 35 35 36 36 36 36 35 36 36 36 37 38 38 38 38 37 37 37 37 37 36 34 34 34 35 36 36 36 35 35 35 35 35 35 35 35 35 35 34 34 33 32
35 35 35 35 35 35 35 35 35 35 35 35 35 34 34 34 34 35 35 35 35 35 35 35 35 35 35 35 35 35 36 36 37 37 37 37 37 36 36 36 37 36 34 33 34 35 35 36 36 36 36 35 34 34 34 35 35 35 35 35 34 33 32
36 35 35 36 36 36 36 36 36 36 36 35 35 35 35 35 35 35 36 36 36 36 35 35 35 35 35 35 35 35 35 35 35 35 36 36 35 34 34 35 35 35 34 33 33 34 34 35 35 36 36 36 35 34 34 34 34 35 35 35 34 34 33
36 36 36 36 37 37 37 37 37 37 36 36 35 35 35 35 36 36 36 36 36 35 35 35 34 34 34 34 34 34 33 33 33 34 34 34 33 33 33 33 33 33 33 32 31 32 33 34 35 35 36 36 35 34 34 34 34 34 34 34 34 34 33
37 37 37 37 38 38 38 38 38 37 37 36 35 35 36 36 36 36 36 36 36 35 35 34 34 34 34 33 33 32 31 32 32 33 32 32 31 31 31 31 32 32 32 31 31 32 32 33 34 35 36 37 36 34 34 33 33 33 34 34 34 33 33
37 38 38 39 39 39 39 38 38 38 37 36 36 36 36 36 36 36 36 36 35 34 34 33 33 33 32 32 31 30 30 31 31 31 31 30 30 30 30 30 30 30 31 31 31 31 32 32 33 34 34 35 35 35 34 33 33 33 34 34 34 33 33
38 39 39 40 39 39 39 39 38 38 37 36 36 36 36 36 36 36 35 34 34 33 33 33 32 32 31 31 30 30 30 30 30 29 29 29 29 29 29 29 29 30 30 30 30 31 31 31 32 33 33 34 34 34 34 33 33 33 34 34 34 33 33
39 40 40 40 40 40 40 39 38 37 37 36 37 37 36 36 35 34 34 33 33 32 32 32 32 31 31 30 29 29 30 29 28 28 28 28 28 28 28 28 28 29 29 30 30 30 30 30 31 32 32 33 34 34 33 33 33 33 33 33 33 34 34
40 40 40 40 40 40 39 39 38 37 36 36 36 36 35 35 34 33 32 32 31 31 31 31 31 30 30 29 28 28 28 27 27 27 27 28 28 28 28 28 28 29 29 29 30 30 30 30 31 31 32 33 33 33 33 34 34 33 33 34 34 34 35
40 40 40 40 40 39 38 38 37 37 36 36 35 34 34 33 32 32 31 31 31 30 30 30 30 29 29 28 27 27 27 26 26 26 26 27 28 28 29 29 29 29 29 29 29 29 30 30 31 31 32 32 32 32 33 34 34 34 35 35 35 35 35
40 40 41 40 39 38 38 38 37 37 36 35 34 33 32 31 31 31 31 31 30 30 30 30 30 29 28 28 27 27 27 26 25 25 26 26 27 28 29 29 29 29 29 29 29 29 30 30 30 30 31 32 32 32 32 33 34 35 35 35 35 35 34
41 41 40 39 38 37 37 38 37 37 36 35 33 32 31 31 31 31 31 30 30 30 30 30 29 29 28 28 27 27 27 26 26 26 26 26 26 26 27 28 28 28 28 29 30 29 29 29 28 29 30 30 31 31 31 32 32 33 34 35 35 34 33
41 41 39 38 38 38 38 38 37 36 35 34 33 32 31 31 31 31 31 31 31 31 31 30 29 29 28 28 27 27 27 27 26 26 26 25 25 25 26 26 27 27 28 28 28 28 28 28 28 28 29 29 30 30 31 31 32 32 33 33 33 33 33
41 40 39 38 38 38 38 37 36 35 34 34 33 32 32 31 31 31 32 32 31 31 30 29 29 28 28 27 27 27 27 26 26 25 25 25 25 25 25 25 26 26 27 27 27 27 27 27 28 28 28 29 29 30 30 31 31 31 32 32 32 32 33
40 39 39 38 38 38 37 36 35 34 34 33 33 32 32 32 32 32 32 31 31 30 29 28 28 28 27 27 27 27 26 26 26 25 25 24 24 24 25 24 24 24 24 25 25 26 26 27 27 27 28 28 29 29 30 30 30 31 31 31 31 31 32
40 39 38 38 38 38 36 35 35 35 34 34 33 32 32 32 32 32 31 30 29 29 28 27 27 27 27 26 26 26 26 26 26 25 24 24 24 24 24 24 23 23 22 23 23 24 25 25 26 26 27 28 28 29 29 29 29 30 30 30 30 31 31
39 39 38 38 38 37 35 35 35 35 34 33 32 31 32 32 32 31 30 29 28 27 26 26 26 27 27 26 26 26 26 26 26 25 25 24 24 24 24 24 24 23 22 22 22 23 23 24 25 25 26 27 28 28 28 29 29 29 29 30 30 30 30
39 39 39 38 37 35 35 35 34 33 32 32 31 31 31 31 31 30 29 28 27 26 25 25 26 26 27 26 26 27 27 27 26 26 25 25 24 24 24 24 24 24 24 23 23 23 23 23 24 24 25 26 26 27 27 28 28 28 28 29 29 29 29
39 38 37 36 35 34 34 34 33 32 32 32 32 32 31 31 31 30 28 27 26 25 24 25 25 26 26 26 27 27 27 27 27 26 26 26 25 25 25 25 25 25 24 24 24 24 24 24 24 24 25 25 26 26 27 27 27 28 28 28 29 29 29
37 36 35 34 34 34 34 33 33 33 33 33 33 32 31 31 31 30 28 27 26 26 25 25 26 26 26 27 27 28 28 27 27 27 26 26 26 26 25 25 25 25 25 25 24 24 24 25 25 25 26 26 27 27 28 28 28 29 29 29 29 29 30
34 34 34 34 34 33 33 33 33 33 33 33 33 32 31 31 30 29 28 28 27 26 26 26 26 27 27 28 28 28 28 28 28 27 27 27 26 26 26 26 26 26 25 25 25 25 25 26 26 27 27 28 28 28 29 29 29 30 30 30 31 31 31
33 33 33 33 33 32 32 33 33 33 33 33 33 32 32 31 31 30 29 29 28 27 27 27 27 28 28 29 29 29 29 29 29 28 28 28 27 27 27 27 27 26 26 26 26 26 27 27 28 28 29 29 29 29 30 30 30 31 31 32 32 33 33
33 33 33 32 32 32 32 32 32 33 33 33 33 33 32 32 31 31 30 30 29 28 28 28 28 28 29 29 30 30 30 30 29 29 29 29 28 28 28 28 28 27 27 28 28 28 29 29 30 30 30 31 31 31 31 31 32 32 33 33 34 34 35
33 33 33 32 32 32 32 32 32 32 32 32 33 33 33 32 32 31 31 31 30 29 29 29 29 30 30 30 30 30 30 30 30 30 30 30 30 29 29 29 29 29 29 29 30 30 30 31 31 32 32 32 32 32 32 33 33 34 34 35 35 36 37
33 33 33 33 33 33 33 33 33 32 32 33 33 33 33 33 33 32 32 32 31 30 30 30 30 31 31 31 31 31 31 31 31 31 31 31 31 31 31 31 31 31 31 31 31 32 32 32 32 33 33 33 33 34 34 34 35 35 36 36 37 38 38
34 34 34 34 34 33 33 33 34 33 33 33 34 33 33 33 33 32 32 32 31 31 31 31 32 32 32 32 32 31 32 32 31 31 31 31 32 32 32 32 32 32 32 32 33 33 33 33 34 34 34 34 35 35 35 36 36 37 37 38 38 39 40
34 34 34 34 34 34 34 34 34 34 34 34 34 34 33 33 33 32 32 32 32 31 32 32 33 33 33 33 33 33 33 33 33 33 33 33 33 33 33 33 33 33 33 34 34 34 34 35 35 35 35 36 36 37 37 37 38 38 39 39 39 40 40
34 34 34 35 35 35 34 34 35 35 35 35 35 35 35 34 34 33 33 33 33 33 33 33 34 34 34 34 34 34 34 34 34 34 34 34 34 34 34 34 34 35 35 35 35 35 36 36 36 36 37 37 37 38 38 39 39 40 40 40 40 41 41
35 35 35 36 36 36 36 36 36 35 35 35 36 36 36 35 35 35 34 34 34 34 34 35 35 35 35 36 36 36 36 36 35 35 35 35 36 36 36 36 36 36 36 36 36 37 37 37 37 38 38 38 39 39 39 40 40 40 41 41 41 41 42
35 36 36 36 36 36 37 37 37 36 36 36 36 36 36 36 36 36 35 35 35 35 35 35 36 36 37 37 37 37 37 37 36 36 36 37 37 37 37 37 37 37 37 37 38 38 38 38 39 39 39 40 40 40 40 40 41 41 41 42 42 42 42
35 36 36 36 37 37 37 37 37 37 37 37 37 37 37 37 37 36 36 37 37 37 36 36 37 37 38 38 39 39 38 38 38 37 37 38 38 38 38 38 38 38 38 39 39 39 39 40 40 40 40 41 41 41 41 41 41 42 42 43 43 43 44
34 35 36 36 37 37 38 38 38 38 38 37 37 37 37 37 37 38 38 38 38 37 37 37 37 38 39 39 40 40 40 39 39 39 39 39 39 39 39 40 40 39 40 40 40 40 40 41 41 41 41 42 42 42 42 42 42 43 43 44 44 44 45
34 35 35 36 36 37 37 38 38 38 38 38 38 37 37 37 37 38 38 39 38 38 38 38 39 39 40 41 41 41 41 40 40 40 40 40 41 41 41 41 41 41 41 41 41 41 41 42 42 42 42 43 43 43 43 43 43 44 44 45 45 46 46
35 35 35 36 36 37 37 37 37 37 37 37 37 36 36 36 36 37 38 38 39 39 39 39 39 40 40 41 41 41 41 41 41 41 41 41 41 41 42 42 42 42 42 42 42 43 43 43 43 43 43 44 44 44 44 44 44 45 45 46 46 47 47
36 36 36 36 36 36 36 37 37 37 37 36 36 35 35 35 36 36 37 37 38 38 38 39 39 40 40 40 41 40 40 40 40 40 40 41 41 42 42 42 43 43 43 43 44 44 44 44 44 44 44 44 45 45 45 45 46 46 46 47 47 48 48
Wind_Direction
295 295 294 293 293 293 292 292 292 292 290 289 288 286 285 283 281 279 278 278 278 278 278 277 276 275 274 272 270 268 267 266 265 264 263 263 261 260 258 256 255 256 255 254 250 247 245 244 243 243 242 240 241 241 241 242 243 244 244 245 245 246 248
294 293 293 293 293 293 293 292 292 291 290 289 287 286 284 282 280 279 279 278 278 278 279 278 277 276 274 272 271 269 268 266 265 264 264 263 261 258 256 255 253 253 253 252 249 246 244 243 243 243 242 241 241 241 242 243 244 245 245 245 245 246 247
292 292 292 293 293 293 293 292 292 291 290 288 287 285 283 282 280 280 279 279 279 279 279 278 277 275 274 272 271 269 268 266 265 265 263 261 259 257 255 253 251 251 251 250 249 246 243 242 242 242 241 241 241 241 242 244 245 245 244 244 244 244 245
291 291 292 293 293 293 292 292 292 291 290 288 286 284 283 281 281 280 280 280 280 279 279 278 276 275 273 272 270 269 268 266 265 264 262 260 259 256 253 251 250 250 250 249 248 246 243 241 242 241 241 240 241 241 242 244 245 245 244 243 244 244 244
291 291 292 293 293 292 292 292 292 291 289 287 285 284 282 281 281 281 280 280 280 279 278 277 275 273 272 271 270 269 268 266 264 262 261 259 257 254 251 250 249 249 248 247 247 245 243 242 242 242 241 240 240 241 242 244 244 243 242 242 243 244 244
290 291 291 292 292 291 292 292 291 290 288 287 285 283 282 282 281 281 280 280 279 278 277 275 274 272 271 270 270 269 268 265 263 262 259 256 254 252 251 249 247 247 246 245 245 244 243 243 242 241 241 241 240 240 242 244 243 242 242 242 243 244 245
289 290 291 291 291 291 291 291 290 289 287 286 285 283 282 282 281 280 280 279 278 277 275 274 273 272 271 270 270 269 266 264 263 260 257 254 253 251 250 248 247 246 246 245 244 244 244 243 242 241 241 241 241 241 242 244 243 242 242 243 244 245 246
289 290 290 290 290 291 291 290 288 287 287 286 285 283 282 282 281 280 279 278 277 276 275 274 273 272 271 270 269 267 265 263 261 257 254 252 252 251 249 248 247 247 246 246 245 245 245 244 243 242 241 241 241 240 241 243 244 243 243 244 245 246 248
289 289 289 290 290 290 289 288 287 287 287 286 285 284 283 282 281 280 278 277 277 276 275 274 273 272 271 269 266 265 264 262 258 254 252 251 250 250 249 248 247 247 247 246 246 246 244 243 243 242 240 240 240 240 240 242 244 245 244 245 247 249 250
288 288 289 289 289 289 288 288 288 287 286 285 285 284 283 282 280 279 278 277 276 276 275 274 273 271 269 266 263 263 262 259 255 253 253 251 251 251 250 249 248 248 248 247 247 246 243 242 242 241 240 240 241 241 241 242 244 246 247 247 249 251 252
288 288 288 288 288 288 288 288 287 286 285 284 284 284 283 281 280 279 278 278 277 276 275 273 271 269 266 264 261 260 258 254 252 253 253 252 252 252 252 251 250 249 248 247 246 246 244 243 242 241 240 241 242 243 244 244 245 247 248 248 250 252 253
288 288 288 288 288 287 287 287 286 285 284 284 283 283 282 281 280 279 278 278 277 277 275 272 270 267 264 262 260 258 255 252 251 253 254 254 253 252 253 252 251 250 248 246 245 245 244 244 243 241 241 242 242 243 245 246 246 247 248 250 252 254 255
287 287 287 287 286 285 285 286 285 284 283 283 282 281 281 281 280 279 278 278 277 277 275 272 269 265 262 259 258 255 252 251 252 254 254 253 253 252 253 252 252 251 249 248 246 245 244 244 243 242 242 242 242 243 244 245 246 247 248 250 252 254 255
287 287 287 286 285 285 286 285 284 282 282 281 279 279 280 281 281 280 279 279 278 277 275 271 267 264 260 257 255 253 251 250 252 253 253 252 251 251 252 252 251 250 249 248 247 245 244 244 243 243 243 243 243 244 245 246 247 248 249 250 252 253 254
286 286 286 286 286 286 285 284 282 281 280 278 278 278 279 280 281 280 280 280 279 277 274 270 265 262 259 255 253 251 249 250 251 252 252 250 249 249 250 251 251 250 248 247 246 245 245 245 245 245 245 244 245 246 247 248 249 250 251 252 253 254 254
286 286 285 285 285 285 284 283 281 280 278 277 277 277 278 279 280 280 280 279 277 275 272 268 264 261 257 254 252 250 249 250 251 251 250 249 248 248 248 249 250 249 247 246 245 245 245 245 245 245 245 244 245 246 247 248 249 250 251 252 253 254 255
286 285 284 284 285 284 283 282 281 279 277 277 276 277 279 280 280 281 280 278 276 273 269 266 263 258 254 252 251 249 248 249 250 249 248 248 246 246 246 246 247 246 246 245 245 245 245 245 245 245 245 245 246 247 247 248 249 250 251 252 254 255 255
285 284 284 285 285 284 282 282 280 277 276 275 274 277 279 280 280 280 279 277 274 270 267 265 261 256 253 252 250 249 248 248 249 248 247 246 244 244 244 244 244 244 245 245 245 245 245 245 245 245 246 246 246 247 248 249 250 250 251 253 254 255 255
284 284 284 285 284 282 281 281 280 277 275 274 274 276 278 279 280 279 277 275 271 267 264 262 259 255 253 252 250 249 248 248 248 247 246 245 244 243 243 243 244 244 245 245 246 246 247 247 247 247 247 247 247 247 248 250 251 251 252 253 254 255 256
284 284 284 284 283 282 280 280 279 277 275 275 274 275 277 278 279 277 275 272 269 264 261 259 257 255 253 252 250 249 248 247 247 247 246 246 245 244 244 244 244 245 245 246 246 247 248 248 249 249 249 249 249 249 250 251 252 252 253 254 255 256 257
284 284 283 283 282 281 280 279 278 277 276 274 273 273 275 278 278 275 271 269 266 262 259 257 256 254 252 251 249 248 248 246 246 246 246 246 246 246 245 244 245 245 246 247 247 247 248 249 250 250 250 251 251 252 252 253 253 254 255 256 257 258 259
283 283 283 283 282 281 280 279 279 278 276 274 272 272 274 277 277 274 270 267 265 262 258 257 256 255 253 250 249 248 247 246 245 245 246 246 246 245 245 245 246 247 247 247 248 248 249 250 250 251 252 252 253 253 254 255 255 256 257 258 259 260 261
282 283 283 283 282 281 281 280 279 278 276 273 271 271 273 275 275 272 269 266 263 261 259 257 257 256 253 251 249 248 247 246 245 245 245 246 246 245 245 246 247 247 247 248 249 250 251 251 252 253 253 254 255 255 255 256 257 258 259 260 261 262 263
283 283 284 283 283 283 282 281 279 278 276 274 271 271 272 272 272 271 268 265 263 262 259 258 258 256 253 251 250 248 247 247 246 246 246 246 246 246 247 248 248 248 249 250 250 251 253 253 254 254 255 255 256 256 256 257 258 259 260 262 263 264 265
284 284 284 284 284 283 283 281 280 279 277 275 273 272 271 271 271 270 267 263 262 261 260 258 258 256 254 252 250 248 248 248 248 247 247 247 247 247 248 249 249 250 251 251 252 253 255 256 256 256 257 257 257 257 258 259 260 261 262 263 264 265 266
285 284 284 284 283 284 283 282 280 279 278 276 275 273 272 271 270 269 266 262 261 260 259 258 257 256 254 252 251 250 249 249 248 248 248 248 248 249 250 250 251 251 252 253 254 255 256 257 258 258 258 258 258 259 260 261 261 262 263 264 265 266 267
286 285 284 283 283 283 282 281 280 279 278 276 275 274 273 271 270 269 266 262 260 259 259 258 257 256 255 253 252 251 250 249 249 249 249 249 250 251 252 252 252 253 253 254 255 256 257 258 259 259 259 260 260 261 261 262 263 264 264 265 266 267 268
286 285 284 284 283 283 282 281 280 279 278 277 275 273 272 271 269 267 265 261 259 258 258 258 257 256 255 253 253 252 251 250 249 249 250 250 251 252 253 254 254 255 255 255 256 257 258 258 259 260 260 261 261 262 263 263 264 265 265 266 266 267 269
286 285 284 283 283 282 282 281 280 279 278 277 275 273 271 270 269 267 264 260 258 257 258 257 256 256 254 253 252 251 251 250 250 250 251 251 252 253 254 255 255 255 256 257 257 258 258 259 260 260 261 261 262 263 264 265 265 266 267 267 268 268 269
285 285 285 284 283 282 281 281 281 279 277 276 275 273 271 270 268 267 264 260 258 257 257 256 256 255 254 253 252 251 251 250 250 251 252 253 254 255 255 256 256 256 257 258 258 259 259 260 260 261 262 262 263 264 265 266 266 267 268 268 269 270 271
286 285 285 284 283 282 281 281 280 279 277 276 274 273 271 269 267 266 263 260 258 258 257 256 256 255 254 253 252 252 251 251 251 252 253 254 255 256 256 257 257 258 258 259 260 260 260 261 261 262 262 263 264 265 266 267 268 268 269 270 270 271 272
288 287 286 285 284 283 282 281 280 278 277 276 275 273 271 269 267 264 262 260 259 258 257 256 256 255 254 253 253 252 252 252 252 253 254 255 256 256 257 258 258 259 260 260 261 261 261 262 262 262 263 263 264 265 266 268 269 270 270 271 272 272 273
289 289 288 287 285 284 283 282 281 279 277 276 275 273 271 268 266 264 261 259 259 259 258 257 256 255 254 254 253 253 253 253 253 253 254 255 256 257 258 259 259 260 261 261 262 262 262 263 263 263 264 264 265 266 267 268 269 270 271 271 272 273 273
290 290 289 288 287 285 284 282 281 279 277 276 274 272 270 268 266 264 261 260 260 259 258 257 256 255 255 254 254 253 253 253 254 254 255 256 257 257 258 259 260 260 261 261 262 263 263 264 264 264 264 265 266 267 268 268 269 270 271 272 273 273 274
291 291 290 289 288 287 285 283 281 279 278 276 274 271 269 268 266 263 261 260 260 259 258 258 257 256 255 255 254 254 254 254 255 255 256 256 257 258 259 259 260 261 261 262 263 263 263 264 264 264 265 265 266 267 268 269 270 271 272 272 273 274 275
291 291 290 290 289 288 287 285 283 281 278 276 274 271 269 268 266 264 262 261 260 260 260 259 258 258 257 256 255 255 255 256 256 257 257 258 259 259 260 261 261 262 262 263 263 264 264 264 264 265 266 266 267 268 269 270 271 272 273 274 274 275 276